DL8FX-6 Weather Reports


time (UTC)temp
C
wind
direction
speed
KPH
gust
KPH
rain 1hr
cm
rain 24hr
cm
rain mn
cm
humidity
%
barometer
mb
20260505041043 13 0.0 0.0 0.05 0.05 0.05 90 1008.6
20260505040019 13 0.0 0.0 0.03 0.03 0.03 89 1008.3
20260505035114 13 0.0 0.0 0.03 0.03 0.03 87 1008.1
20260505034110 13 0.0 0.0 0.00 0.00 0.00 86 1008.1
20260505033106 13 0.0 0.0 0.00 0.00 0.00 85 1008.2
20260505032102 13 0.0 0.0 0.00 0.00 0.00 84 1008.3
20260505031058 13 0.0 0.0 0.00 0.00 0.00 83 1008.5
20260505030054 13 0.0 0.0 0.00 0.00 0.00 82 1008.6
20260505025050 13 0.0 0.0 0.00 0.00 0.00 81 1008.8
20260505024046 13 0.0 0.0 0.00 0.00 0.00 81 1008.8
20260505023042 13 0.0 0.0 0.00 0.00 0.00 81 1008.8
20260505022038 13 0.0 0.0 0.00 0.00 0.00 81 1008.8
20260505021034 13 0.0 0.0 0.00 0.00 0.00 81 1008.9
20260505020030 13 0.0 0.0 0.00 0.00 0.00 81 1009.1
20260505015026 13 0.0 0.0 0.00 0.00 0.00 81 1009.1
20260505014022 13 0.0 0.0 0.00 0.00 0.00 81 1009.2
20260505013018 13 0.0 3.2 0.00 0.00 0.00 82 1009.1
20260505012114 13 0.0 0.0 0.00 0.00 0.00 82 1008.8
20260505011111 13 0.0 0.0 0.00 0.00 0.00 82 1008.8
20260505010107 13 0.0 0.0 0.00 0.00 0.00 82 1008.8
20260505005123 13 0.0 0.0 0.00 0.00 0.00 81 1008.9
20260505004059 13 0.0 0.0 0.00 0.00 0.00 81 1009.1
20260505003056 13 0.0 0.0 0.00 0.00 0.00 82 1009.1
20260505002052 13 0.0 0.0 0.00 0.00 0.00 81 1009.2
20260505001048 13 0.0 0.0 0.00 0.00 0.00 81 1009.3
20260505000044 13 0.0 0.0 0.00 0.00 0.00 82 1009.4
20260504235040 13 0.0 0.0 0.00 0.00 0.00 83 1009.3
20260504234036 13 0.0 0.0 0.00 0.00 0.00 83 1009.2
20260504233032 13 0.0 0.0 0.00 0.00 0.00 83 1009.4
20260504232048 13 0.0 0.0 0.00 0.00 0.00 84 1009.5
20260504231024 12 0.0 0.0 0.00 0.00 0.00 83 1009.6
20260504230020 12 0.0 0.0 0.00 0.00 0.00 83 1009.7
20260504225036 12 0.0 0.0 0.00 0.00 0.00 83 1009.7
20260504224112 12 0.0 0.0 0.00 0.00 0.00 82 1009.8
20260504223128 13 0.0 0.0 0.00 0.00 0.00 81 1009.7
20260504222104 13 0.0 0.0 0.00 0.00 0.00 81 1009.8
20260504221100 13 0.0 0.0 0.00 0.00 0.00 80 1009.8
20260504220057 13 0.0 0.0 0.00 0.00 0.00 80 1009.9
20260504215053 13 0.0 0.0 0.00 0.00 0.00 78 1009.9
20260504214048 14 0.0 0.0 0.00 0.00 0.00 78 1010.0
20260504213045 14 0.0 0.0 0.00 0.00 0.00 76 1010.0
20260504212121 14 0.0 0.0 0.00 0.00 0.00 77 1010.1
20260504211037 14 0.0 0.0 0.00 0.00 0.00 76 1010.1
20260504210033 15 0.0 0.0 0.00 0.00 0.00 76 1010.0
20260504205050 15 0.0 0.0 0.00 0.00 0.00 75 1010.0
20260504204045 15 0.0 0.0 0.00 0.00 0.00 74 1010.1
20260504203022 15 0.0 0.0 0.00 0.00 0.00 75 1010.1
20260504202018 15 0.0 0.0 0.00 0.00 0.00 74 1010.0
20260504201114 15 0.0 0.0 0.00 0.00 0.00 73 1009.9
20260504200110 15 0.0 0.0 0.00 0.00 0.00 73 1010.0
20260504195107 16 0.0 0.0 0.00 0.00 0.00 73 1010.0
20260504194102 16 0.0 0.0 0.00 0.00 0.00 71 1010.0
20260504193119 16 0.0 0.0 0.00 0.00 0.00 71 1009.8
20260504192114 17 0.0 0.0 0.00 0.00 0.00 71 1009.8
20260504191050 17 0.0 0.0 0.00 0.00 0.00 68 1009.9
20260504190106 18 0.0 0.0 0.00 0.00 0.00 65 1009.8
20260504185042 18 0.0 0.0 0.00 0.00 0.00 62 1009.8
20260504184038 18 0.0 0.0 0.00 0.00 0.00 61 1009.8
20260504183035 18 0.0 0.0 0.00 0.00 0.00 61 1009.7
20260504182031 19 0.0 0.0 0.00 0.00 0.00 61 1009.6
20260504181027 19 0.0 0.0 0.00 0.00 0.00 60 1009.5
20260504180023 20 0.0 0.0 0.00 0.00 0.00 58 1009.6
20260504175019 20 0.0 0.0 0.00 0.00 0.00 56 1009.6
20260504174115 21 0.0 0.0 0.00 0.00 0.00 53 1009.5
20260504173111 21 0.0 0.0 0.00 0.00 0.00 52 1009.5
20260504172107 22 0.0 0.0 0.00 0.00 0.00 50 1009.4
20260504171103 22 0.0 0.0 0.00 0.00 0.00 52 1009.4
20260504151015 23 0.0 0.0 0.00 0.00 0.00 48 1009.5
20260504150112 22 0.0 0.0 0.00 0.00 0.00 52 1009.6
20260504141052 23 0.0 3.2 0.00 0.00 0.00 43 1009.9
20260504100108 22 309 1.6 12.9 0.00 0.00 0.00 52 1010.6
20260504090123 22 180 1.6 12.9 0.00 0.00 0.00 55 1010.6
20260504081024 21 270 4.8 9.7 0.00 0.00 0.00 59 1010.5
20260504080201 21 219 1.6 14.5 0.00 0.00 0.00 59 1010.5
20260504050109 15 0.0 0.0 0.00 0.00 0.00 76 1009.4